Location: ????????
(48.4751°N, 37.6926°E)
Time: 13:27:19
(UTC+00:00)

CZ-2C R/B - Pass Details

Date: 20 January 2021
Orbit: 704 x 908 km, 98.1° (Epoch: 26 February)

Event Time Altitude Azimuth Distance (km) Brightness Sun altitude
Rises 16:26:27 0° 187° (S) 3,268 6.4 -22.3°
Reaches altitude 10° 16:28:51 10° 194° (SSW) 2,375 5.8 -22.7°
Maximum altitude 16:33:48 41° 264° (W) 1,201 4.5 -23.6°
Drops below altitude 10° 16:39:04 10° 334° (NNW) 2,515 5.9 -24.4°
Sets 16:41:40 0° 342° (NNW) 3,484 6.6 -24.9°
